Washington, PA

11:38 PM EDT on May 28, 2017 (GMT -0400)
Washington County

Weather History for KAFJ - February, 2014

Change the Weather History Date:

Friday, February 7, 2014

  Actual Average Record
Temperature  
Mean Temperature 13 °F -  
Max Temperature 21 °F 38 °F 64 °F (2017)
Min Temperature 5 °F 21 °F 5 °F (2014)
Degree Days  
Heating Degree Days 52    
Moisture  
Dew Point 5 °F    
Average Humidity 66    
Maximum Humidity 86    
Minimum Humidity 42    
Precipitation  
Precipitation 0.00 in - - ()
Sea Level Pressure  
Sea Level Pressure 30.33 in    
Wind  
Wind Speed 8 mph (WSW)    
Max Wind Speed 18 mph    
Max Gust Speed 25 mph    
Visibility 10 miles    
Events      
Averages and records for this station are not official NWS values.
T = Trace of Precipitation, MM = Missing Value Source: NWS Daily Summary

Daily Weather History Graph

Daily Weather History Graph

Search for Another Location

Airport or City:

Trip Planner

Search our weather history database for the weather conditions in past years. The results will help you decide how hot, cold, wet, or windy it might be!

Date:

Astronomy

Feb. 07, 2014 Rise Set
Actual Time 7:23 AM EST 5:47 PM EST
Civil Twilight 6:55 AM EST 6:15 PM EST
Nautical Twilight 6:23 AM EST 6:47 PM EST
Astronomical Twilight 5:51 AM EST 7:19 PM EST
Moon 11:57 AM EST (2/7) 1:38 AM EST (2/7)
Length of Visible Light 11h 20m
Length of Day
10h 23m
First Quarter, 59% of the Moon is Illuminated
Feb 7
First Quarter
Feb 14
Full
Feb 22
Last Quarter
Mar 1
New
Mar 8
First Quarter

Hourly Weather History & Observations

Time (EST) Temp. Windchill Dew Point Humidity Pressure Visibility Wind Dir Wind Speed Gust Speed Precip Events Conditions
12:15 AM 19.4 °F 7.9 °F 15.8 °F 86% 30.28 in 7.0 mi West 10.4 mph 17.3 mph N/A   Overcast
12:35 AM 19.4 °F 7.9 °F 12.2 °F 74% 30.28 in 10.0 mi WSW 10.4 mph 18.4 mph N/A   Overcast
12:55 AM 19.4 °F 9.5 °F 10.4 °F 68% 30.28 in 10.0 mi SW 8.1 mph - N/A   Overcast
1:15 AM 19.4 °F 7.9 °F 12.2 °F 74% 30.28 in 10.0 mi WSW 10.4 mph - N/A   Overcast
1:35 AM 19.4 °F 9.5 °F 12.2 °F 74% 30.28 in 10.0 mi WSW 8.1 mph - N/A   Overcast
1:55 AM 19.4 °F 7.9 °F 12.2 °F 74% 30.28 in 10.0 mi WSW 10.4 mph 21.9 mph N/A   Overcast
2:15 AM 19.4 °F 9.5 °F 12.2 °F 74% 30.28 in 10.0 mi WSW 8.1 mph - N/A   Overcast
2:35 AM 19.4 °F 9.5 °F 12.2 °F 74% 30.28 in 10.0 mi WSW 8.1 mph - N/A   Overcast
2:55 AM 19.4 °F 10.4 °F 12.2 °F 74% 30.28 in 10.0 mi WSW 6.9 mph - N/A   Overcast
3:15 AM 19.4 °F 7.9 °F 10.4 °F 68% 30.29 in 10.0 mi West 10.4 mph - N/A   Overcast
3:35 AM 17.6 °F 5.7 °F 8.6 °F 68% 30.30 in 10.0 mi West 10.4 mph - N/A   Overcast
3:55 AM 17.6 °F 3.2 °F 8.6 °F 68% 30.31 in 10.0 mi WSW 15.0 mph 18.4 mph N/A   Overcast
4:15 AM 17.6 °F 7.3 °F 8.6 °F 68% 30.30 in 10.0 mi WSW 8.1 mph 16.1 mph N/A   Overcast
4:35 AM 15.8 °F 5.1 °F 8.6 °F 73% 30.31 in 10.0 mi WSW 8.1 mph - N/A   Overcast
4:55 AM 15.8 °F 6.1 °F 8.6 °F 73% 30.32 in 10.0 mi West 6.9 mph - N/A   Overcast
5:15 AM 15.8 °F 5.1 °F 6.8 °F 68% 30.33 in 10.0 mi West 8.1 mph - N/A   Mostly Cloudy
5:35 AM 14.0 °F 3.9 °F 6.8 °F 73% 30.33 in 10.0 mi WSW 6.9 mph - N/A   Partly Cloudy
5:55 AM 12.2 °F 1.7 °F 6.8 °F 79% 30.33 in 10.0 mi WSW 6.9 mph - N/A   Partly Cloudy
6:15 AM 12.2 °F 1.7 °F 6.8 °F 79% 30.33 in 10.0 mi SW 6.9 mph - N/A   Scattered Clouds
6:35 AM 12.2 °F 0.7 °F 5.0 °F 73% 30.33 in 10.0 mi SW 8.1 mph - N/A   Partly Cloudy
6:55 AM 12.2 °F -0.2 °F 5.0 °F 73% 30.33 in 10.0 mi WSW 9.2 mph - N/A   Clear
7:15 AM 10.4 °F -1.5 °F 3.2 °F 73% 30.33 in 10.0 mi WSW 8.1 mph - N/A   Clear
7:35 AM 10.4 °F 4.0 °F 3.2 °F 73% 30.33 in 10.0 mi West 3.5 mph - N/A   Clear
7:55 AM 8.6 °F - 3.2 °F 79% 30.33 in 10.0 mi Calm Calm - N/A   Clear
8:15 AM 10.4 °F 0.8 °F 5.0 °F 79% 30.34 in 10.0 mi WSW 5.8 mph - N/A   Clear
8:35 AM 10.4 °F 4.0 °F 5.0 °F 79% 30.35 in 10.0 mi WSW 3.5 mph - N/A   Clear
8:55 AM 10.4 °F -1.5 °F 5.0 °F 79% 30.35 in 10.0 mi WSW 8.1 mph - N/A   Partly Cloudy
9:15 AM 10.4 °F -3.3 °F 5.0 °F 79% 30.35 in 10.0 mi WSW 10.4 mph - N/A   Scattered Clouds
9:35 AM 12.2 °F 0.7 °F 3.2 °F 67% 30.35 in 10.0 mi WSW 8.1 mph - N/A   Mostly Cloudy
9:55 AM 12.2 °F 1.7 °F 5.0 °F 73% 30.36 in 10.0 mi WSW 6.9 mph - N/A   Mostly Cloudy
10:15 AM 12.2 °F 2.9 °F 6.8 °F 79% 30.36 in 10.0 mi WSW 5.8 mph - N/A   Overcast
10:35 AM 14.0 °F 1.2 °F 3.2 °F 62% 30.36 in 10.0 mi West 10.4 mph - N/A   Overcast
10:55 AM 15.8 °F 4.2 °F 5.0 °F 62% 30.36 in 10.0 mi WSW 9.2 mph - N/A   Overcast
11:15 AM 15.8 °F 3.4 °F 5.0 °F 62% 30.37 in 10.0 mi WSW 10.4 mph 16.1 mph N/A   Overcast
11:35 AM 15.8 °F 2.1 °F 6.8 °F 68% 30.36 in 10.0 mi SW 12.7 mph 16.1 mph N/A   Mostly Cloudy
11:55 AM 17.6 °F 3.7 °F 6.8 °F 63% 30.35 in 10.0 mi WSW 13.8 mph 17.3 mph N/A   Clear
12:15 PM 17.6 °F 7.3 °F 6.8 °F 63% 30.34 in 10.0 mi SW 8.1 mph - N/A   Clear
12:35 PM 19.4 °F 7.9 °F 8.6 °F 63% 30.33 in 10.0 mi WSW 10.4 mph - N/A   Scattered Clouds
12:55 PM 19.4 °F 5.0 °F 8.6 °F 63% 30.33 in 10.0 mi WSW 16.1 mph 21.9 mph N/A   Scattered Clouds
1:15 PM 21.2 °F 6.4 °F 8.6 °F 58% 30.32 in 10.0 mi SW 18.4 mph 25.3 mph N/A   Partly Cloudy
1:35 PM 21.2 °F 6.4 °F 8.6 °F 58% 30.33 in 10.0 mi WSW 18.4 mph 23.0 mph N/A   Partly Cloudy
1:55 PM 21.2 °F 7.3 °F 6.8 °F 54% 30.32 in 10.0 mi WSW 16.1 mph 20.7 mph N/A   Clear
2:15 PM 21.2 °F 8.9 °F 6.8 °F 54% 30.32 in 10.0 mi West 12.7 mph 18.4 mph N/A   Partly Cloudy
2:35 PM 21.2 °F 8.9 °F 3.2 °F 46% 30.32 in 10.0 mi West 12.7 mph 18.4 mph N/A   Clear
2:55 PM 21.2 °F 8.3 °F 3.2 °F 46% 30.32 in 10.0 mi WSW 13.8 mph 18.4 mph N/A   Clear
3:15 PM 21.2 °F 9.5 °F 3.2 °F 46% 30.33 in 10.0 mi WSW 11.5 mph 20.7 mph N/A   Clear
3:35 PM 21.2 °F 7.8 °F 3.2 °F 46% 30.33 in 10.0 mi WSW 15.0 mph 19.6 mph N/A   Clear
3:55 PM 21.2 °F 10.1 °F 3.2 °F 46% 30.33 in 10.0 mi WSW 10.4 mph - N/A   Clear
4:15 PM 21.2 °F 9.5 °F 3.2 °F 46% 30.34 in 10.0 mi WSW 11.5 mph - N/A   Clear
4:35 PM 21.2 °F 10.9 °F 1.4 °F 42% 30.34 in 10.0 mi West 9.2 mph - N/A   Clear
4:55 PM 19.4 °F 11.5 °F 1.4 °F 46% 30.34 in 10.0 mi WSW 5.8 mph - N/A   Clear
5:15 PM 19.4 °F 10.4 °F 1.4 °F 46% 30.34 in 10.0 mi West 6.9 mph - N/A   Clear
5:35 PM 19.4 °F 11.5 °F 1.4 °F 46% 30.34 in 10.0 mi West 5.8 mph - N/A   Clear
5:55 PM 17.6 °F 8.2 °F 1.4 °F 49% 30.34 in 10.0 mi WSW 6.9 mph - N/A   Clear
6:15 PM 17.6 °F 8.2 °F -0.4 °F 45% 30.34 in 10.0 mi West 6.9 mph - N/A   Clear
6:35 PM 17.6 °F 9.3 °F -0.4 °F 45% 30.35 in 10.0 mi West 5.8 mph - N/A   Clear
6:55 PM 17.6 °F 10.7 °F -0.4 °F 45% 30.35 in 10.0 mi West 4.6 mph - N/A   Clear
7:15 PM 15.8 °F - -0.4 °F 49% 30.35 in 10.0 mi Calm Calm - N/A   Clear
7:35 PM 15.8 °F 10.2 °F -0.4 °F 49% 30.34 in 10.0 mi West 3.5 mph - N/A   Clear
7:55 PM 12.2 °F - 1.4 °F 62% 30.34 in 10.0 mi Calm Calm - N/A   Clear
8:15 PM 12.2 °F - 1.4 °F 62% 30.34 in 10.0 mi Calm Calm - N/A   Clear
8:35 PM 10.4 °F - 1.4 °F 67% 30.33 in 10.0 mi Calm Calm - N/A   Clear
8:55 PM 10.4 °F - 3.2 °F 73% 30.33 in 10.0 mi Calm Calm - N/A   Clear
9:15 PM 8.6 °F - -0.4 °F 67% 30.33 in 10.0 mi Calm Calm - N/A   Clear
9:35 PM 8.6 °F - 1.4 °F 73% 30.33 in 10.0 mi Calm Calm - N/A   Clear
9:55 PM 6.8 °F - 1.4 °F 79% 30.33 in 10.0 mi Calm Calm - N/A   Clear
10:15 PM 6.8 °F - 1.4 °F 79% 30.33 in 10.0 mi Calm Calm - N/A   Clear
10:35 PM 5.0 °F - 1.4 °F 85% 30.32 in 10.0 mi Calm Calm - N/A   Clear
10:55 PM 6.8 °F - 1.4 °F 79% 30.31 in 10.0 mi Calm Calm - N/A   Clear
11:15 PM 5.0 °F - -0.4 °F 78% 30.31 in 10.0 mi Calm Calm - N/A   Clear
11:35 PM 5.0 °F - 1.4 °F 85% 30.32 in 10.0 mi Calm Calm - N/A   Clear
11:55 PM 6.8 °F - 1.4 °F 79% 30.32 in 10.0 mi Calm Calm - N/A   Clear